sat.trackr.live / text

‹ back to catalog

STARLINK-30869

NORAD 58437 · 2023-183A

PAYLOAD ACTIVE UNKNOWN

§ Identity

Operator
Country
US
Launch date
2023-11-28
Launch site
AFETR
Launch vehicle
Mass (kg)
RCS (m²)

Purposes: comms

External: N2YO · Heavens-Above · Gunter

§ Orbital elements

Epoch: 2026-05-24T19:14:02.478912Z

Period
94.27 min
Inclination
43.0012°
Eccentricity
0.0002154
Mean motion
15.27573463 rev/d
Perigee alt
481.6 km
Apogee alt
484.5 km
Semi-major
6,861.2 km
B*
-1.2221e-5
RAAN
331.8676°
Arg perigee
272.6628°
Mean anomaly
87.3977°
Rev number
13,837

§ Raw data

STARLINK-308691 58437U 23183A   26144.80141758 -.00000599  00000+0 -12221-4 0  99912 58437  43.0012 331.8676 0002154 272.6628  87.3977 15.27573463138374

JSON: /api/v1/satellites/58437 · /tle

For live sub-satellite position, see the globe view (requires WebGL).

§ Visibility from observer

Set your observer location to see the next 7 days of passes ≥ 10°. The values pass through the URL so the page stays shareable.

No JS? Fill the form by hand. The geolocation button needs JavaScript.